Terminal Aerodrome Forecast
Issued by NWS Pittsburgh, PA

Current Version | Previous Version | Graphics & Text | Print | Product List | Glossary On
Versions: 1 2 3 4 5 6 7 8 9 10 11 12 13 14 15 16 17 18 19 20 21 22 23 24 25 26 27 28 29 30 31
026
FTUS41 KPBZ 200908 AAA
TAFPIT
TAF AMD
KPIT 200908Z 2009/2112 10003KT P6SM OVC100
     FM201000 11006KT P6SM OVC080
     FM201100 11006KT P6SM -RA OVC035
     FM201400 13007KT 2SM -RA OVC008
     FM202200 20005KT P6SM SCT008 OVC010
     FM210500 20004KT P6SM OVC015=

USA.gov is the U.S. government's official web portal to all federal, state and local government web resources and services.